tititudorancea.com
Station Historical Data
 
Daily Summary for July 30, 2016 Units:  Metric    English   Both
« Previous Day
Next Day »
Daily Weekly Monthly Yearly Custom
  Current: High: Low: Average:
Temperature: 9.7 °C 11 °C 9.7 °C 10.1 °C
Dew Point: 9.6 °C 10.8 °C 9.6 °C 9.9 °C
Humidity: 99 % 99 % 99 % 99 %
Wind Speed: 5 km/h 11.1 km/h 0 km/h 4.2 km/h
Wind Gust: 19.5 km/h 23.3 km/h - -
Wind:North - - South
Pressure: 1027 hPa 1028.7 hPa 1026.6 hPa -
Precipitation: 0.25 mm      
Historical Graphs
 
 
Ararat weather Find more about Weather in Ararat, AU


 



 


Tabular Data for July 30, 2016
Time Temperature Dew Point Pressure Wind Wind Speed Wind Gust Humidity Rainfall Rate (Hourly)
00:03 11 °C 10.8 °C 1028.3 hPa North 1.1 km/h 7.2 km/h 99 % 0 mm
00:08 11 °C 10.8 °C 1028.3 hPa NNW 2.6 km/h 8.7 km/h 99 % 0 mm
00:13 11 °C 10.8 °C 1028.3 hPa NNW 1.1 km/h 8.7 km/h 99 % 0 mm
00:18 11 °C 10.8 °C 1028.3 hPa NNW 1.1 km/h 11.1 km/h 99 % 0 mm
00:23 11 °C 10.8 °C 1028.3 hPa NNW 2.6 km/h 11.1 km/h 99 % 0 mm
00:28 11 °C 10.8 °C 1028.7 hPa NW 2.6 km/h 7.2 km/h 99 % 0 mm
00:33 11 °C 10.8 °C 1028.3 hPa NNW 5 km/h 7.2 km/h 99 % 0 mm
00:38 10.9 °C 10.7 °C 1028 hPa North 2.6 km/h 7.2 km/h 99 % 0 mm
00:43 10.9 °C 10.7 °C 1028 hPa Calm   8.7 km/h 99 % 0 mm
00:48 10.8 °C 10.6 °C 1028.3 hPa Calm   8.7 km/h 99 % 0 mm
00:53 10.8 °C 10.6 °C 1028 hPa Calm   3.5 km/h 99 % 0 mm
00:58 10.8 °C 10.6 °C 1028 hPa NW 1.1 km/h 3.5 km/h 99 % 0 mm
01:03 10.7 °C 10.6 °C 1028 hPa NW 1.1 km/h 6.1 km/h 99 % 0 mm
01:08 10.7 °C 10.6 °C 1028.3 hPa NNW 1.1 km/h 6.1 km/h 99 % 0 mm
01:13 10.6 °C 10.4 °C 1028 hPa NNW 1.1 km/h 8.7 km/h 99 % 0 mm
01:18 10.6 °C 10.4 °C 1028.3 hPa Calm   8.7 km/h 99 % 0 mm
01:23 10.6 °C 10.4 °C 1028.3 hPa NNW 2.6 km/h 6.1 km/h 99 % 0 mm
01:28 10.6 °C 10.4 °C 1028 hPa NNW 1.1 km/h 6.1 km/h 99 % 0 mm
01:33 10.6 °C 10.4 °C 1028 hPa NNW 1.1 km/h 6.1 km/h 99 % 0 mm
01:35 10.6 °C 10.4 °C 1028 hPa NNW 3.5 km/h 8.7 km/h 99 % 0 mm
01:37 10.6 °C 10.4 °C 1028 hPa NNW 5 km/h 11.1 km/h 99 % 0 mm
01:38 10.6 °C 10.4 °C 1028 hPa NNE 1.1 km/h 8.7 km/h 99 % 0 mm
01:39 10.6 °C 10.4 °C 1028.3 hPa NNW 7.2 km/h 11.1 km/h 99 % 0 mm
01:40 10.5 °C 10.3 °C 1028 hPa NNW 3.5 km/h 11.1 km/h 99 % 0 mm
01:43 10.6 °C 10.4 °C 1028 hPa North 2.6 km/h 8.7 km/h 99 % 0 mm
01:45 10.5 °C 10.3 °C 1028 hPa North 2.6 km/h 11.1 km/h 99 % 0 mm
01:47 10.5 °C 10.3 °C 1028 hPa North 2.6 km/h 11.1 km/h 99 % 0 mm
01:48 10.6 °C 10.4 °C 1028 hPa NNW 3.5 km/h 8.7 km/h 99 % 0 mm
01:50 10.5 °C 10.3 °C 1028 hPa North 1.1 km/h 9.7 km/h 99 % 0 mm
01:53 10.5 °C 10.3 °C 1028.3 hPa NNW 3.5 km/h 11.1 km/h 99 % 0 mm
01:56 10.5 °C 10.3 °C 1028 hPa North 3.5 km/h 11.1 km/h 99 % 0 mm
01:57 10.5 °C 10.3 °C 1028.3 hPa North 7.2 km/h 11.1 km/h 99 % 0 mm
01:58 10.5 °C 10.3 °C 1028 hPa North 5 km/h 11.1 km/h 99 % 0 mm
01:59 10.5 °C 10.3 °C 1028 hPa North 5 km/h 11.1 km/h 99 % 0 mm
02:00 10.4 °C 10.2 °C 1028 hPa North 2.6 km/h 11.1 km/h 99 % 0 mm
02:01 10.4 °C 10.2 °C 1028 hPa North 2.6 km/h 11.1 km/h 99 % 0 mm
02:02 10.4 °C 10.2 °C 1028 hPa North 5 km/h 11.1 km/h 99 % 0 mm
02:03 10.5 °C 10.3 °C 1028 hPa Calm   9.7 km/h 99 % 0 mm
02:08 10.5 °C 10.3 °C 1028 hPa North 3.5 km/h 11.1 km/h 99 % 0 mm
02:13 10.4 °C 10.2 °C 1028 hPa North 2.6 km/h 11.1 km/h 99 % 0 mm
02:18 10.4 °C 10.2 °C 1028 hPa North 2.6 km/h 14.8 km/h 99 % 0 mm
02:23 10.4 °C 10.2 °C 1028 hPa North 2.6 km/h 14.8 km/h 99 % 0 mm
02:28 10.3 °C 10.2 °C 1027.7 hPa North 3.5 km/h 9.7 km/h 99 % 0 mm
02:33 10.3 °C 10.2 °C 1028 hPa North 2.6 km/h 8.7 km/h 99 % 0 mm
02:38 10.3 °C 10.2 °C 1027.7 hPa Calm   8.7 km/h 99 % 0 mm
02:43 10.3 °C 10.2 °C 1027.7 hPa North 1.1 km/h 6.1 km/h 99 % 0 mm
02:48 10.2 °C 10.1 °C 1027.7 hPa NNE 3.5 km/h 8.7 km/h 99 % 0 mm
02:53 10.3 °C 10.2 °C 1027.7 hPa NNE 2.6 km/h 12.2 km/h 99 % 0 mm
02:58 10.2 °C 10.1 °C 1027.3 hPa NNE 2.6 km/h 13.4 km/h 99 % 0 mm
03:03 10.2 °C 10.1 °C 1027.3 hPa North 2.6 km/h 13.4 km/h 99 % 0 mm
03:08 10.1 °C 9.9 °C 1027.3 hPa North 3.5 km/h 15.8 km/h 99 % 0 mm
03:14 10.1 °C 9.9 °C 1027.3 hPa North 7.2 km/h 15.8 km/h 99 % 0 mm
03:19 10.1 °C 9.9 °C 1027.3 hPa North 2.6 km/h 14.8 km/h 99 % 0 mm
03:24 10.1 °C 9.9 °C 1027.3 hPa North 2.6 km/h 12.2 km/h 99 % 0 mm
03:29 10.1 °C 9.9 °C 1027.3 hPa NNW 1.1 km/h 8.7 km/h 99 % 0 mm
03:34 10.1 °C 9.9 °C 1027.3 hPa North 1.1 km/h 8.7 km/h 99 % 0 mm
03:39 10.1 °C 9.9 °C 1027.3 hPa North 2.6 km/h 11.1 km/h 99 % 0 mm
03:44 10 °C 9.8 °C 1027 hPa North 2.6 km/h 11.1 km/h 99 % 0 mm
03:49 10 °C 9.8 °C 1027 hPa NNW 3.5 km/h 11.1 km/h 99 % 0 mm
03:54 10 °C 9.8 °C 1027 hPa North 2.6 km/h 11.1 km/h 99 % 0 mm
03:59 10 °C 9.8 °C 1027 hPa North 7.2 km/h 15.8 km/h 99 % 0 mm
04:04 10 °C 9.8 °C 1027.3 hPa NNE 3.5 km/h 15.8 km/h 99 % 0 mm
04:09 10 °C 9.8 °C 1027 hPa NNE 6.1 km/h 9.7 km/h 99 % 0 mm
04:14 10 °C 9.8 °C 1027.3 hPa North 1.1 km/h 11.1 km/h 99 % 0 mm
04:19 10 °C 9.8 °C 1027 hPa NNW 3.5 km/h 11.1 km/h 99 % 0 mm
04:24 10 °C 9.8 °C 1027 hPa North 3.5 km/h 11.1 km/h 99 % 0 mm
04:29 10 °C 9.8 °C 1027 hPa North 1.1 km/h 11.1 km/h 99 % 0 mm
04:34 10 °C 9.8 °C 1027 hPa North 5 km/h 12.2 km/h 99 % 0 mm
04:39 10 °C 9.8 °C 1027 hPa North 2.6 km/h 12.2 km/h 99 % 0 mm
04:44 10 °C 9.8 °C 1027 hPa NNE 1.1 km/h 8.7 km/h 99 % 0 mm
04:49 10 °C 9.8 °C 1027 hPa NNE 6.1 km/h 12.2 km/h 99 % 0 mm
04:54 10 °C 9.8 °C 1027 hPa North 1.1 km/h 12.2 km/h 99 % 0 mm
04:55 10 °C 9.8 °C 1026.6 hPa NNE 1.1 km/h 13.4 km/h 99 % 0 mm
04:56 10 °C 9.8 °C 1026.6 hPa North 2.6 km/h 13.4 km/h 99 % 0 mm
04:57 10 °C 9.8 °C 1026.6 hPa North 3.5 km/h 13.4 km/h 99 % 0 mm
04:59 10 °C 9.8 °C 1026.6 hPa North 6.1 km/h 13.4 km/h 99 % 0 mm
05:01 10 °C 9.8 °C 1026.6 hPa NNE 5 km/h 13.4 km/h 99 % 0 mm
05:02 10 °C 9.8 °C 1026.6 hPa NNE 2.6 km/h 11.1 km/h 99 % 0 mm
05:03 10 °C 9.8 °C 1026.6 hPa NNE 5 km/h 11.1 km/h 99 % 0 mm
05:04 10 °C 9.8 °C 1027 hPa NNE 7.2 km/h 13.4 km/h 99 % 0 mm
05:05 10 °C 9.8 °C 1026.6 hPa NNE 5 km/h 11.1 km/h 99 % 0 mm
05:06 10 °C 9.8 °C 1026.6 hPa NNE 3.5 km/h 11.1 km/h 99 % 0 mm
05:07 10 °C 9.8 °C 1027 hPa NNE 6.1 km/h 14.8 km/h 99 % 0 mm
05:09 10 °C 9.8 °C 1026.6 hPa North 3.5 km/h 13.4 km/h 99 % 0 mm
05:10 9.9 °C 9.8 °C 1026.6 hPa North 6.1 km/h 14.8 km/h 99 % 0 mm
05:11 9.9 °C 9.8 °C 1027 hPa North 5 km/h 14.8 km/h 99 % 0 mm
05:12 9.9 °C 9.8 °C 1027 hPa NNW 8.7 km/h 14.8 km/h 99 % 0 mm
05:14 10 °C 9.8 °C 1026.6 hPa NNE 5 km/h 11.1 km/h 99 % 0 mm
05:16 9.9 °C 9.8 °C 1026.6 hPa North 2.6 km/h 14.8 km/h 99 % 0 mm
05:17 9.9 °C 9.8 °C 1026.6 hPa North 1.1 km/h 14.8 km/h 99 % 0 mm
05:19 10 °C 9.8 °C 1027 hPa NNE 6.1 km/h 14.8 km/h 99 % 0 mm
05:20 9.9 °C 9.8 °C 1026.6 hPa Calm   14.8 km/h 99 % 0 mm
05:23 9.9 °C 9.8 °C 1026.6 hPa NNE 1.1 km/h 11.1 km/h 99 % 0 mm
05:24 9.9 °C 9.8 °C 1027 hPa North 5 km/h 14.8 km/h 99 % 0 mm
05:27 9.9 °C 9.8 °C 1026.6 hPa NNW 3.5 km/h 9.7 km/h 99 % 0 mm
05:29 9.9 °C 9.8 °C 1026.6 hPa North 1.1 km/h 14.8 km/h 99 % 0 mm
05:30 9.9 °C 9.8 °C 1026.6 hPa NNW 1.1 km/h 14.8 km/h 99 % 0 mm
05:31 9.9 °C 9.8 °C 1026.6 hPa NNW 1.1 km/h 14.8 km/h 99 % 0 mm
05:32 9.9 °C 9.8 °C 1026.6 hPa NNW 3.5 km/h 14.8 km/h 99 % 0 mm
05:33 9.9 °C 9.8 °C 1026.6 hPa NNW 3.5 km/h 14.8 km/h 99 % 0 mm
05:34 9.9 °C 9.8 °C 1026.6 hPa NNW 3.5 km/h 14.8 km/h 99 % 0 mm
05:35 9.9 °C 9.8 °C 1026.6 hPa North 3.5 km/h 14.8 km/h 99 % 0 mm
05:36 9.9 °C 9.8 °C 1027 hPa North 5 km/h 14.8 km/h 99 % 0 mm
05:37 9.9 °C 9.8 °C 1027 hPa North 3.5 km/h 14.8 km/h 99 % 0 mm
05:38 9.9 °C 9.8 °C 1027 hPa North 3.5 km/h 14.8 km/h 99 % 0 mm
05:39 9.9 °C 9.8 °C 1027 hPa NNE 3.5 km/h 8.7 km/h 99 % 0 mm
05:40 9.9 °C 9.8 °C 1027 hPa NNE 2.6 km/h 8.7 km/h 99 % 0 mm
05:41 9.9 °C 9.8 °C 1027 hPa NNE 3.5 km/h 8.7 km/h 99 % 0 mm
05:42 9.9 °C 9.8 °C 1027 hPa Calm   8.7 km/h 99 % 0 mm
05:45 9.9 °C 9.8 °C 1026.6 hPa NNW 3.5 km/h 14.8 km/h 99 % 0 mm
05:46 9.9 °C 9.8 °C 1026.6 hPa NNW 2.6 km/h 12.2 km/h 99 % 0 mm
05:47 9.9 °C 9.8 °C 1026.6 hPa NNW 2.6 km/h 12.2 km/h 99 % 0 mm
05:48 9.9 °C 9.8 °C 1027 hPa NNW 7.2 km/h 13.4 km/h 99 % 0 mm
05:51 9.9 °C 9.8 °C 1027 hPa North 3.5 km/h 14.8 km/h 99 % 0 mm
05:52 9.9 °C 9.8 °C 1027 hPa NNW 7.2 km/h 20.9 km/h 99 % 0 mm
05:54 9.9 °C 9.8 °C 1027 hPa NNW 3.5 km/h 20.9 km/h 99 % 0 mm
05:55 9.9 °C 9.8 °C 1027 hPa NNW 3.5 km/h 20.9 km/h 99 % 0 mm
05:56 9.9 °C 9.8 °C 1026.6 hPa North 2.6 km/h 9.7 km/h 99 % 0 mm
05:57 9.9 °C 9.8 °C 1027 hPa NNW 6.1 km/h 20.9 km/h 99 % 0 mm
05:58 9.9 °C 9.8 °C 1027 hPa NNW 5 km/h 20.9 km/h 99 % 0 mm
05:59 9.9 °C 9.8 °C 1027 hPa NNW 5 km/h 20.9 km/h 99 % 0 mm
06:01 9.9 °C 9.8 °C 1027 hPa NNW 8.7 km/h 20.9 km/h 99 % 0 mm
06:02 9.9 °C 9.8 °C 1026.6 hPa NNW 5 km/h 13.4 km/h 99 % 0 mm
06:03 9.9 °C 9.8 °C 1027 hPa NNW 6.1 km/h 15.8 km/h 99 % 0 mm
06:05 9.9 °C 9.8 °C 1027 hPa NNW 5 km/h 15.8 km/h 99 % 0 mm
06:06 9.9 °C 9.8 °C 1027 hPa North 11.1 km/h 23.3 km/h 99 % 0 mm
06:07 9.9 °C 9.8 °C 1027 hPa NNW 3.5 km/h 20.9 km/h 99 % 0 mm
06:08 9.9 °C 9.8 °C 1027 hPa North 6.1 km/h 23.3 km/h 99 % 0 mm
06:10 9.8 °C 9.7 °C 1027 hPa North 6.1 km/h 23.3 km/h 99 % 0 mm
06:11 9.9 °C 9.8 °C 1027 hPa NNW 3.5 km/h 23.3 km/h 99 % 0 mm
06:12 9.9 °C 9.8 °C 1027 hPa NNW 5 km/h 20.9 km/h 99 % 0 mm
06:13 9.8 °C 9.7 °C 1027 hPa NNW 3.5 km/h 23.3 km/h 99 % 0 mm
06:14 9.8 °C 9.7 °C 1027 hPa North 2.6 km/h 23.3 km/h 99 % 0 mm
06:15 9.8 °C 9.7 °C 1027 hPa NNW 3.5 km/h 23.3 km/h 99 % 0 mm
06:16 9.8 °C 9.7 °C 1027 hPa NNW 3.5 km/h 23.3 km/h 99 % 0 mm
06:17 9.9 °C 9.8 °C 1027 hPa NNW 5 km/h 15.8 km/h 99 % 0 mm
06:19 9.8 °C 9.7 °C 1027.3 hPa NNW 3.5 km/h 12.2 km/h 99 % 0 mm
06:20 9.8 °C 9.7 °C 1027.3 hPa NNW 3.5 km/h 12.2 km/h 99 % 0 mm
06:21 9.8 °C 9.7 °C 1027 hPa NNW 6.1 km/h 12.2 km/h 99 % 0 mm
06:23 9.9 °C 9.8 °C 1027 hPa NNW 5 km/h 23.3 km/h 99 % 0 mm
06:25 9.8 °C 9.7 °C 1027 hPa North 5 km/h 12.2 km/h 99 % 0 mm
06:26 9.8 °C 9.7 °C 1027 hPa North 5 km/h 12.2 km/h 99 % 0 mm
06:27 9.8 °C 9.7 °C 1027 hPa North 3.5 km/h 12.2 km/h 99 % 0 mm
06:28 9.8 °C 9.7 °C 1027 hPa North 1.1 km/h 12.2 km/h 99 % 0 mm
06:29 9.8 °C 9.7 °C 1027 hPa NNW 2.6 km/h 14.8 km/h 99 % 0 mm
06:30 9.8 °C 9.7 °C 1027 hPa NNE 6.1 km/h 14.8 km/h 99 % 0 mm
06:31 9.8 °C 9.7 °C 1027 hPa NNE 5 km/h 14.8 km/h 99 % 0 mm
06:32 9.8 °C 9.7 °C 1027 hPa NNE 7.2 km/h 14.8 km/h 99 % 0 mm
06:33 9.8 °C 9.7 °C 1027 hPa NNE 6.1 km/h 14.8 km/h 99 % 0 mm
06:34 9.8 °C 9.7 °C 1027 hPa NNE 5 km/h 14.8 km/h 99 % 0 mm
06:35 9.8 °C 9.7 °C 1027.3 hPa North 3.5 km/h 12.2 km/h 99 % 0 mm
06:36 9.8 °C 9.7 °C 1027 hPa NNE 7.2 km/h 14.8 km/h 99 % 0 mm
06:37 9.8 °C 9.7 °C 1027 hPa NNE 3.5 km/h 14.8 km/h 99 % 0 mm
06:38 9.8 °C 9.7 °C 1027 hPa NNE 3.5 km/h 14.8 km/h 99 % 0 mm
06:39 9.8 °C 9.7 °C 1027 hPa NNE 3.5 km/h 14.8 km/h 99 % 0 mm
06:40 9.8 °C 9.7 °C 1027 hPa North 3.5 km/h 12.2 km/h 99 % 0 mm
06:41 9.8 °C 9.7 °C 1027 hPa NNE 3.5 km/h 13.4 km/h 99 % 0 mm
06:42 9.8 °C 9.7 °C 1027 hPa NNE 6.1 km/h 13.4 km/h 99 % 0 mm
06:44 9.8 °C 9.7 °C 1027 hPa NNE 5 km/h 13.4 km/h 99 % 0 mm
06:45 9.8 °C 9.7 °C 1027 hPa NNE 6.1 km/h 14.8 km/h 99 % 0 mm
06:46 9.8 °C 9.7 °C 1027 hPa NNE 5 km/h 13.4 km/h 99 % 0 mm
06:48 9.8 °C 9.7 °C 1027 hPa NNE 5 km/h 15.8 km/h 99 % 0 mm
06:49 9.8 °C 9.7 °C 1026.6 hPa NNE 7.2 km/h 15.8 km/h 99 % 0 mm
06:50 9.8 °C 9.7 °C 1027 hPa NNE 2.6 km/h 14.8 km/h 99 % 0 mm
06:51 9.8 °C 9.7 °C 1026.6 hPa NNE 9.7 km/h 17.2 km/h 99 % 0 mm
06:52 9.8 °C 9.7 °C 1026.6 hPa NNE 5 km/h 17.2 km/h 99 % 0 mm
06:53 9.8 °C 9.7 °C 1026.6 hPa NE 8.7 km/h 17.2 km/h 99 % 0 mm
06:54 9.8 °C 9.7 °C 1026.6 hPa NE 7.2 km/h 17.2 km/h 99 % 0 mm
06:55 9.8 °C 9.7 °C 1026.6 hPa NE 7.2 km/h 17.2 km/h 99 % 0 mm
06:56 9.8 °C 9.7 °C 1027 hPa North 3.5 km/h 13.4 km/h 99 % 0 mm
06:57 9.8 °C 9.7 °C 1026.6 hPa NE 8.7 km/h 17.2 km/h 99 % 0 mm
06:58 9.8 °C 9.7 °C 1026.6 hPa NE 5 km/h 17.2 km/h 99 % 0 mm
06:59 9.8 °C 9.7 °C 1026.6 hPa NE 7.2 km/h 17.2 km/h 99 % 0 mm
07:00 9.8 °C 9.7 °C 1027 hPa NE 8.7 km/h 17.2 km/h 99 % 0 mm
07:01 9.8 °C 9.7 °C 1026.6 hPa NNE 7.2 km/h 15.8 km/h 99 % 0 mm
07:02 9.8 °C 9.7 °C 1027 hPa NNE 5 km/h 15.8 km/h 99 % 0 mm
07:03 9.8 °C 9.7 °C 1027 hPa NNE 7.2 km/h 15.8 km/h 99 % 0 mm
07:04 9.8 °C 9.7 °C 1027 hPa NNE 9.7 km/h 15.8 km/h 99 % 0 mm
07:05 9.8 °C 9.7 °C 1027 hPa NNE 5 km/h 15.8 km/h 99 % 0 mm
07:06 9.8 °C 9.7 °C 1026.6 hPa NE 6.1 km/h 17.2 km/h 99 % 0 mm
07:07 9.8 °C 9.7 °C 1027 hPa NNE 5 km/h 15.8 km/h 99 % 0 mm
07:08 9.8 °C 9.7 °C 1027 hPa NNE 6.1 km/h 15.8 km/h 99 % 0 mm
07:09 9.8 °C 9.7 °C 1027 hPa North 6.1 km/h 15.8 km/h 99 % 0 mm
07:10 9.8 °C 9.7 °C 1026.6 hPa North 8.7 km/h 15.8 km/h 99 % 0.25 mm
07:11 9.8 °C 9.7 °C 1026.6 hPa NE 7.2 km/h 17.2 km/h 99 % 0 mm
07:12 9.8 °C 9.7 °C 1026.6 hPa North 6.1 km/h 19.5 km/h 99 % 0.25 mm
07:13 9.8 °C 9.7 °C 1027 hPa North 6.1 km/h 19.5 km/h 99 % 0.25 mm
07:14 9.8 °C 9.7 °C 1027 hPa North 6.1 km/h 19.5 km/h 99 % 0.25 mm
07:16 9.8 °C 9.7 °C 1026.6 hPa North 5 km/h 19.5 km/h 99 % 0.25 mm
07:17 9.8 °C 9.7 °C 1027 hPa NNE 5 km/h 15.8 km/h 99 % 0 mm
07:19 9.8 °C 9.7 °C 1027 hPa North 7.2 km/h 19.5 km/h 99 % 0.25 mm
07:20 9.8 °C 9.7 °C 1027 hPa North 3.5 km/h 19.5 km/h 99 % 0.25 mm
07:21 9.8 °C 9.7 °C 1027 hPa North 6.1 km/h 19.5 km/h 99 % 0.25 mm
07:22 9.8 °C 9.7 °C 1027 hPa North 8.7 km/h 14.8 km/h 99 % 0.25 mm
07:23 9.8 °C 9.7 °C 1027 hPa North 7.2 km/h 15.8 km/h 99 % 0.25 mm
07:24 9.7 °C 9.6 °C 1027 hPa North 8.7 km/h 15.8 km/h 99 % 0.25 mm
07:28 9.8 °C 9.7 °C 1027 hPa North 3.5 km/h 19.5 km/h 99 % 0.25 mm
07:33 9.7 °C 9.6 °C 1027 hPa North 5 km/h 19.5 km/h 99 % 0.25 mm
Ararat Weather
Compliments of Weather Underground - 1.5 mb
Click here to send mail.


ABOUT

Live weather data from Ararat, Victoria, Australia, 3377
Data uploaded from Cumulus every 5 minutes to Weather Underground.
This site then downloads the raw data for formatting and display.
Metric and imperial data can be displayed. Graphs and historical data available.
Includes Sun and Moon times and rain image live from BOM.

Check out Ararat Weather on Facebook, Twitter and Google +

Help support ongoing costs by checking out the ads





Follow @AraratWeather